GFSFLT1_700_rhum_135.txt.gz
RH
29 29 28 29 28 27 28 32 32 31 35 36 39 42 52 55 48 45 40 35 33 33 31 31 32 34 38 50 64 65 73 85
29 29 26 28 30 27 27 32 33 33 33 35 43 42 44 46 55 56 46 43 40 37 36 34 32 31 42 50 63 69 79 74
26 29 27 29 27 30 32 30 32 34 33 38 45 46 50 54 66 60 54 49 42 36 37 35 34 44 54 59 60 57 69 80
24 26 28 27 32 31 32 30 33 33 36 46 49 46 47 49 52 48 44 43 48 39 21 34 35 52 61 78 73 54 64 84
22 21 22 27 36 41 35 34 34 37 39 42 45 52 64 59 45 40 40 42 42 29 27 24 27 43 56 74 70 67 66 70
21 26 29 26 34 39 44 40 36 38 37 38 43 52 41 35 33 33 32 32 31 24 37 36 31 32 46 58 66 64 63 67
27 31 38 42 32 40 44 42 40 39 39 34 30 36 33 29 28 31 27 37 28 31 39 42 38 40 38 57 63 69 72 64
29 45 48 45 43 40 44 53 50 43 41 37 35 38 18 15 19 19 25 35 45 53 63 67 80 75 56 63 67 67 66 67
32 33 36 45 49 51 52 61 60 59 46 40 37 28 12 13 13 17 28 43 57 64 68 70 81 88 75 90 77 63 67 65
31 38 61 63 69 65 66 61 60 64 50 39 34 14 14 16 13 10 20 30 50 60 70 73 83 92 95 92 82 91 61 65
48 87 90 84 80 79 62 55 57 32 21 16 14 13 12 12 12 14 13 21 38 53 51 63 87 76 45 53 44 64 61 64
90 99 100 99 92 62 48 52 35 32 34 21 22 11 9 7 8 9 10 14 18 47 61 80 91 85 39 38 37 51 59 67
100 99 98 98 98 60 45 30 46 26 20 14 10 10 8 5 4 4 8 7 13 28 73 84 100 83 81 44 44 56 64 68
98 99 99 99 98 92 62 40 51 43 36 13 9 7 7 6 6 4 4 8 12 14 26 95 98 93 82 69 62 62 70 70
98 98 99 99 99 98 95 69 65 52 30 10 8 7 6 6 6 6 5 5 16 23 18 73 94 100 86 78 78 70 71 70
98 96 96 97 94 79 85 80 72 46 14 10 8 7 7 6 5 5 6 5 8 22 24 26 91 95 98 91 80 72 76 72
85 87 85 72 64 55 49 40 25 13 11 10 9 9 8 6 5 3 5 6 6 18 34 33 39 98 97 95 99 81 86 76
53 47 60 48 41 47 50 24 17 13 11 11 12 11 8 13 12 9 6 6 14 23 30 41 39 60 85 97 99 86 73 78
56 49 42 34 28 24 14 10 10 12 15 14 11 9 15 19 16 10 5 12 35 41 45 50 70 46 81 90 100 99 97 82

GFSFLT1_700_rhum_141.txt.gz
RH
28 30 28 31 31 32 31 31 30 30 30 30 29 29 40 55 54 45 44 49 50 48 51 46 42 44 44 44 50 52 55 64
25 27 27 26 25 25 26 30 30 30 30 30 29 28 27 34 54 52 55 61 62 62 55 49 47 47 43 44 51 55 56 62
16 24 26 26 25 25 25 27 28 29 29 29 29 29 28 27 48 58 61 82 83 77 66 59 48 46 44 40 45 46 52 58
11 13 18 21 24 24 25 26 28 29 29 28 29 30 31 37 43 55 62 79 93 92 78 71 54 55 50 42 43 42 45 51
18 9 6 11 15 18 23 23 24 24 24 28 27 29 31 40 41 60 56 63 71 76 77 96 84 76 58 47 43 35 44 51
13 13 9 7 6 6 10 12 18 20 22 28 28 30 31 46 47 56 71 79 57 71 82 100 99 90 70 55 50 50 42 48
34 16 16 16 16 14 5 10 20 22 36 36 35 38 39 64 64 62 98 72 76 62 43 51 47 63 64 56 50 51 45 35
44 51 20 21 27 30 28 24 28 42 45 56 53 43 62 68 88 78 88 95 69 52 36 30 32 47 48 56 59 47 45 42
76 96 46 34 31 37 43 62 60 70 74 68 78 88 59 62 68 80 77 48 40 29 16 12 20 40 44 51 52 52 50 51
100 89 100 74 67 51 66 91 87 88 90 88 84 72 65 59 53 57 49 45 39 26 15 9 18 35 47 56 58 55 59 52
99 96 100 100 100 97 68 94 99 94 92 78 69 66 64 64 64 62 54 45 36 18 13 12 19 28 46 61 67 70 78 72
97 97 96 98 99 98 95 73 99 100 100 86 75 72 64 60 59 57 49 44 19 12 11 12 12 22 33 50 65 77 83 83
96 97 96 96 95 98 100 100 100 99 93 90 83 81 78 71 52 29 26 11 8 7 7 8 10 12 16 38 56 71 68 70
96 95 97 93 98 93 98 99 99 94 97 90 92 83 62 52 23 13 9 8 8 8 7 6 8 8 10 16 30 56 69 77
96 96 96 95 96 94 96 98 99 97 98 94 92 82 60 29 12 8 8 7 7 6 7 6 6 8 13 14 67 55 60 74
89 94 95 93 95 96 90 93 95 94 57 43 48 36 18 12 10 9 9 8 7 5 4 4 4 5 12 30 31 90 66 83
92 88 87 70 84 94 95 90 85 76 57 36 18 19 13 11 10 10 11 10 7 5 5 5 5 6 8 14 43 36 43 85
87 79 70 68 62 56 65 72 60 48 49 42 32 22 15 13 12 13 12 8 8 11 11 8 6 6 9 10 13 27 32 62
85 76 70 63 59 56 50 44 51 52 51 46 50 35 23 19 19 14 12 12 15 14 13 12 7 5 9 19 26 27 43 44

GFSFLT1_700_rhum_147.txt.gz
RH
52 54 41 23 28 31 32 33 32 32 34 45 68 66 53 48 38 38 50 52 51 65 69 70 63 47 39 41 44 47 48 48
63 55 26 12 18 25 30 31 33 32 30 32 33 34 48 61 63 58 60 61 52 42 60 70 69 74 58 44 46 49 51 52
64 17 8 8 11 18 25 28 28 30 31 30 31 30 31 31 34 42 52 54 50 49 42 51 56 72 68 60 49 51 53 57
12 6 5 6 6 5 11 21 26 25 25 28 29 30 30 30 30 30 32 39 39 36 31 37 38 63 79 77 58 56 66 70
14 8 6 5 3 4 8 6 12 24 26 24 24 26 27 28 30 30 30 29 30 30 30 30 31 40 81 78 68 67 78 68
34 31 23 15 12 8 4 3 7 7 16 25 25 24 24 23 26 28 30 30 29 29 29 29 32 48 74 88 74 83 79 79
52 54 57 50 35 28 20 13 10 6 6 6 16 24 25 25 24 24 34 29 29 29 28 28 40 49 79 91 93 93 75 52
54 52 51 54 49 41 36 30 29 28 23 10 6 6 11 21 23 25 31 34 29 24 31 46 42 67 86 98 99 92 56 63
58 49 54 55 62 59 53 57 88 66 97 46 32 17 11 10 31 32 38 50 46 30 46 52 66 95 96 90 77 70 71 98
52 50 52 47 52 66 63 55 58 81 98 98 90 73 98 62 58 49 59 59 61 71 74 84 95 90 97 87 78 68 79 95
54 48 42 43 46 58 71 76 64 67 99 100 99 99 97 99 100 82 73 84 97 100 96 90 91 88 90 71 67 62 72 69
50 49 52 51 59 59 72 81 89 86 96 99 90 95 90 99 98 99 99 100 100 99 100 92 80 62 58 62 54 56 47 56
56 50 57 62 66 65 76 85 95 96 96 98 99 91 98 100 99 100 100 100 92 82 77 67 56 48 53 54 32 29 30 37
59 56 57 63 68 67 73 91 94 97 98 95 99 97 99 97 99 100 83 74 70 70 69 69 61 59 52 27 15 14 17 40
62 60 67 71 71 66 71 93 96 97 98 94 98 99 98 92 92 84 70 66 54 41 33 32 37 31 11 8 9 10 13 11
66 65 71 70 63 54 64 92 97 96 97 97 96 99 100 98 100 97 88 53 28 17 12 9 8 7 8 9 10 10 8 8
78 75 64 55 48 46 49 71 93 96 96 94 95 96 86 52 53 76 92 34 22 19 10 9 8 8 8 6 6 5 5 4
67 65 60 57 50 48 51 52 50 74 95 96 89 53 50 45 44 42 35 32 24 16 14 13 11 9 8 8 7 8 7 6
50 48 48 49 54 54 53 55 56 54 56 82 93 94 76 75 66 56 47 35 39 23 20 16 14 18 18 10 9 9 8 7

GFSFLT1_700_rhum_150.txt.gz
RH
60 58 29 16 9 12 18 26 32 34 42 33 54 76 77 40 30 28 26 26 29 33 36 46 48 42 50 62 53 43 41 43
57 25 10 16 9 8 12 20 26 30 32 33 32 32 41 63 61 56 40 31 30 32 41 51 59 64 68 69 68 72 61 45
22 24 15 9 6 5 6 8 15 24 28 29 32 32 32 34 40 51 44 66 57 52 43 50 63 67 60 62 67 71 79 69
28 16 11 9 6 5 4 4 6 8 22 27 27 28 32 32 34 46 34 32 47 65 67 58 61 68 59 54 55 72 78 85
21 15 11 10 10 11 11 9 9 5 7 14 26 26 26 30 32 36 47 36 31 30 43 54 48 44 38 37 35 38 56 86
20 19 27 29 29 26 21 18 17 17 14 8 8 20 26 26 28 30 32 49 32 30 40 45 43 47 41 30 31 42 59 63
20 24 40 36 35 31 29 28 26 25 24 23 18 9 12 24 26 27 31 37 93 43 50 44 37 45 52 54 59 56 67 76
14 16 18 32 30 25 27 31 33 35 40 42 50 37 17 9 16 23 26 28 41 47 34 44 49 39 45 63 71 74 72 93
18 23 29 28 26 24 23 29 33 36 40 40 48 59 67 30 15 10 15 24 35 39 60 55 43 45 60 67 73 75 85 97
26 21 33 34 29 29 28 29 34 45 46 47 49 62 90 98 86 61 16 12 15 29 46 48 56 54 67 61 70 76 95 92
34 31 35 39 36 36 41 46 54 68 69 64 62 70 100 99 90 84 99 27 17 20 34 48 59 73 90 90 86 92 77 72
37 39 39 45 46 45 46 57 60 76 86 82 76 94 99 98 99 98 100 99 98 100 78 70 89 98 94 95 91 92 81 79
47 45 39 45 52 55 60 64 62 82 95 92 90 95 97 98 93 73 94 96 99 96 100 99 96 98 97 89 83 81 68 79
58 49 45 51 54 62 64 58 57 88 96 97 99 97 96 98 97 78 96 97 95 100 99 99 99 100 98 65 73 63 59 52
58 57 64 65 62 57 51 45 46 79 97 98 97 99 97 97 98 99 100 96 99 95 100 99 98 89 78 59 58 55 40 17
71 70 64 59 56 52 51 52 45 52 95 97 95 97 97 97 97 97 97 97 94 97 97 94 73 85 61 57 46 25 8 8
52 49 48 48 49 51 56 56 59 62 68 94 96 95 95 95 96 96 96 98 95 81 74 38 36 17 11 9 7 7 7 7
50 48 46 43 40 37 38 49 58 62 70 80 81 95 96 93 71 57 66 76 92 86 84 50 27 16 12 9 9 8 7 7
54 51 48 43 39 39 37 35 36 47 54 60 65 67 83 94 96 95 89 71 53 61 46 38 31 27 17 12 8 9 9 10